Weather History for Bullhead City, AZ

Change the Weather History Date:

Tuesday, February 12, 2013

  Actual Average Record
Temperature  
Mean Temperature 50 °F -  
Max Temperature 59 °F 65 °F 84 °F (1991)
Min Temperature 41 °F 47 °F 36 °F (1989)
Degree Days  
Heating Degree Days 15    
Moisture  
Dew Point 14 °F    
Average Humidity 25    
Maximum Humidity 46    
Minimum Humidity 15    
Precipitation  
Precipitation 0.00 in - - ()
Sea Level Pressure  
Sea Level Pressure 30.29 in    
Wind  
Wind Speed 11 mph (North)    
Max Wind Speed 24 mph    
Max Gust Speed 28 mph    
Visibility 10 miles    
Events      
Averages and records for this station are not official NWS values.
T = Trace of Precipitation, MM = Missing Value Source: NWS Daily Summary

Daily Weather History Graph

Daily Weather History Graph

Search for Another Location

Airport:

Trip Planner

Search our weather history database for the weather conditions in past years. The results will help you decide how hot, cold, wet, or windy it might be!

Date:

Astronomy

Feb. 12, 2013 Rise Set
Actual Time 7:27 AM MST 6:18 PM MST
Civil Twilight 7:01 AM MST 6:44 PM MST
Nautical Twilight 6:31 AM MST 7:14 PM MST
Astronomical Twilight 6:01 AM MST 7:43 PM MST
Moon 8:34 AM MST (2/12) 9:13 PM MST (2/12)
Length of Visible Light 11h 43m
Length of Day
10h 51m
Waxing Crescent, 8% of the Moon is Illuminated
Feb 12
Waxing Crescent
Feb 17
First Quarter
Feb 25
Full
Mar 4
Last Quarter
Mar 11
New

Hourly Weather History & Observations

Time (MST) Temp. Windchill Dew Point Humidity Pressure Visibility Wind Dir Wind Speed Gust Speed Precip Events Conditions
12:15 AM 42.8 °F - 17.6 °F 36% 30.24 in 10.0 mi Calm Calm - N/A   Clear
12:35 AM 41.0 °F 39.0 °F 17.6 °F 39% 30.25 in 10.0 mi NE 3.5 mph - N/A   Clear
12:55 AM 41.0 °F 38.0 °F 17.6 °F 39% 30.25 in 10.0 mi North 4.6 mph - N/A   Clear
1:15 AM 41.0 °F 36.4 °F 15.8 °F 36% 30.25 in 10.0 mi North 6.9 mph - N/A   Clear
1:35 AM 42.8 °F 41.1 °F 15.8 °F 34% 30.26 in 10.0 mi North 3.5 mph - N/A   Clear
1:55 AM 41.0 °F 39.0 °F 17.6 °F 39% 30.26 in 10.0 mi North 3.5 mph - N/A   Clear
2:15 AM 42.8 °F 40.1 °F 23.0 °F 46% 30.26 in 10.0 mi NNW 4.6 mph - N/A   Clear
2:35 AM 42.8 °F - 23.0 °F 46% 30.26 in 10.0 mi Calm Calm - N/A   Clear
2:55 AM 44.6 °F 39.2 °F 17.6 °F 34% 30.26 in 10.0 mi NNE 10.4 mph - N/A   Clear
3:15 AM 46.4 °F 40.7 °F 15.8 °F 29% 30.26 in 10.0 mi NNE 12.7 mph - N/A   Clear
3:35 AM 46.4 °F 39.5 °F 17.6 °F 32% 30.26 in 10.0 mi North 17.3 mph - N/A   Clear
3:55 AM 44.6 °F 38.4 °F 15.8 °F 31% 30.26 in 10.0 mi North 12.7 mph - N/A   Clear
4:15 AM 44.6 °F 36.9 °F 15.8 °F 31% 30.26 in 10.0 mi North 18.4 mph - N/A   Clear
4:35 AM 44.6 °F 36.6 °F 15.8 °F 31% 30.26 in 10.0 mi North 19.6 mph - N/A   Clear
5:15 AM 44.6 °F 37.4 °F 15.8 °F 31% 30.29 in 10.0 mi North 16.1 mph - N/A   Clear
5:35 AM 44.6 °F 38.1 °F 15.8 °F 31% 30.30 in 10.0 mi North 13.8 mph - N/A   Clear
5:55 AM 44.6 °F 37.8 °F 15.8 °F 31% 30.30 in 10.0 mi North 15.0 mph - N/A   Clear
6:15 AM 44.6 °F 38.8 °F 15.8 °F 31% 30.31 in 10.0 mi North 11.5 mph - N/A   Clear
6:35 AM 42.8 °F 36.6 °F 14.0 °F 31% 30.32 in 10.0 mi North 11.5 mph - N/A   Clear
6:55 AM 42.8 °F 37.0 °F 15.8 °F 34% 30.32 in 10.0 mi North 10.4 mph - N/A   Clear
7:15 AM 41.0 °F 35.8 °F 15.8 °F 36% 30.32 in 10.0 mi NNW 8.1 mph - N/A   Clear
7:35 AM 42.8 °F 36.6 °F 15.8 °F 34% 30.33 in 10.0 mi North 11.5 mph - N/A   Clear
7:55 AM 42.8 °F 36.6 °F 15.8 °F 34% 30.34 in 10.0 mi North 11.5 mph - N/A   Clear
8:15 AM 44.6 °F 37.2 °F 12.2 °F 27% 30.34 in 10.0 mi North 17.3 mph - N/A   Clear
8:35 AM 44.6 °F 37.2 °F 14.0 °F 29% 30.35 in 10.0 mi North 17.3 mph - N/A   Clear
8:55 AM 44.6 °F 37.4 °F 14.0 °F 29% 30.35 in 10.0 mi North 16.1 mph - N/A   Clear
9:15 AM 44.6 °F 37.2 °F 14.0 °F 29% 30.36 in 10.0 mi North 17.3 mph - N/A   Clear
9:35 AM 46.4 °F 39.2 °F 14.0 °F 27% 30.36 in 10.0 mi North 18.4 mph 24.2 mph N/A   Clear
9:55 AM 46.4 °F 39.2 °F 14.0 °F 27% 30.37 in 10.0 mi North 18.4 mph - N/A   Clear
10:15 AM 48.2 °F - 12.2 °F 24% 30.36 in 10.0 mi North 24.2 mph 27.6 mph N/A   Clear
10:35 AM 48.2 °F - 10.4 °F 22% 30.36 in 10.0 mi NNW 24.2 mph - N/A   Clear
10:55 AM 50.0 °F - 10.4 °F 20% 30.37 in 10.0 mi NNW 21.9 mph 27.6 mph N/A   Clear
11:15 AM 50.0 °F - 8.6 °F 19% 30.37 in 10.0 mi North 19.6 mph - N/A   Clear
11:35 AM 51.8 °F - 10.4 °F 19% 30.37 in 10.0 mi North 18.4 mph 24.2 mph N/A   Clear
11:55 AM 53.6 °F - 10.4 °F 18% 30.36 in 10.0 mi NNW 17.3 mph 23.0 mph N/A   Clear
12:15 PM 53.6 °F - 8.6 °F 16% 30.35 in 10.0 mi NNW 16.1 mph - N/A   Clear
12:35 PM 53.6 °F - 10.4 °F 18% 30.34 in 10.0 mi NNW 17.3 mph 25.3 mph N/A   Clear
12:55 PM 55.4 °F - 8.6 °F 15% 30.33 in 10.0 mi NNW 16.1 mph 23.0 mph N/A   Clear
1:15 PM 55.4 °F - 10.4 °F 17% 30.31 in 10.0 mi NNW 18.4 mph 25.3 mph N/A   Clear
1:35 PM 55.4 °F - 10.4 °F 17% 30.30 in 10.0 mi North 17.3 mph 24.2 mph N/A   Clear
1:55 PM 55.4 °F - 12.2 °F 18% 30.29 in 10.0 mi NNW 19.6 mph 23.0 mph N/A   Clear
2:15 PM 55.4 °F - 10.4 °F 17% 30.28 in 10.0 mi North 19.6 mph - N/A   Clear
2:35 PM 57.2 °F - 10.4 °F 16% 30.27 in 10.0 mi NNW 19.6 mph - N/A   Clear
2:55 PM 57.2 °F - 10.4 °F 16% 30.26 in 10.0 mi NNW 18.4 mph - N/A   Clear
3:15 PM 57.2 °F - 10.4 °F 16% 30.26 in 10.0 mi NNW 16.1 mph - N/A   Clear
3:35 PM 57.2 °F - 12.2 °F 17% 30.26 in 10.0 mi NNW 20.7 mph 25.3 mph N/A   Clear
3:55 PM 59.0 °F - 14.0 °F 17% 30.26 in 10.0 mi North 17.3 mph 24.2 mph N/A   Clear
4:15 PM 59.0 °F - 14.0 °F 17% 30.26 in 10.0 mi NNW 17.3 mph 24.2 mph N/A   Clear
4:35 PM 59.0 °F - 14.0 °F 17% 30.25 in 10.0 mi NNW 17.3 mph - N/A   Clear
4:55 PM 59.0 °F - 12.2 °F 16% 30.25 in 10.0 mi NNW 17.3 mph - N/A   Clear
5:15 PM 59.0 °F - 14.0 °F 17% 30.25 in 10.0 mi NNW 13.8 mph - N/A   Clear
5:35 PM 57.2 °F - 14.0 °F 18% 30.25 in 10.0 mi NNW 16.1 mph - N/A   Clear
5:55 PM 57.2 °F - 14.0 °F 18% 30.25 in 10.0 mi North 12.7 mph 18.4 mph N/A   Clear
6:15 PM 57.2 °F - 14.0 °F 18% 30.25 in 10.0 mi North 11.5 mph - N/A   Clear
6:35 PM 55.4 °F - 17.6 °F 23% 30.25 in 10.0 mi North 8.1 mph - N/A   Clear
6:55 PM 55.4 °F - 12.2 °F 18% 30.26 in 10.0 mi NNE 10.4 mph - N/A   Clear
7:15 PM 55.4 °F - 12.2 °F 18% 30.27 in 10.0 mi North 4.6 mph - N/A   Clear
7:55 PM 53.6 °F - 14.0 °F 21% 30.27 in 10.0 mi Calm Calm - N/A   Clear
8:15 PM 53.6 °F - 14.0 °F 21% 30.26 in 10.0 mi NE 4.6 mph - N/A   Clear
8:35 PM 51.8 °F - 14.0 °F 22% 30.26 in 10.0 mi North 10.4 mph - N/A   Clear
8:55 PM 51.8 °F - 14.0 °F 22% 30.25 in 10.0 mi North 12.7 mph - N/A   Clear
9:15 PM 51.8 °F - 14.0 °F 22% 30.25 in 10.0 mi North 11.5 mph - N/A   Clear
9:35 PM 51.8 °F - 14.0 °F 22% 30.25 in 10.0 mi NNE 15.0 mph - N/A   Clear
9:55 PM 51.8 °F - 14.0 °F 22% 30.26 in 10.0 mi NNE 10.4 mph - N/A   Clear
10:15 PM 51.8 °F - 14.0 °F 22% 30.26 in 10.0 mi North 10.4 mph - N/A   Clear
10:35 PM 50.0 °F - 15.8 °F 26% 30.27 in 10.0 mi North 8.1 mph - N/A   Clear
10:55 PM 50.0 °F - 15.8 °F 26% 30.27 in 10.0 mi North 5.8 mph - N/A   Clear
11:15 PM 50.0 °F - 14.0 °F 24% 30.27 in 10.0 mi NNE 8.1 mph - N/A   Clear
11:35 PM 48.2 °F - 15.8 °F 27% 30.27 in 10.0 mi NNE 5.8 mph - N/A   Clear
11:55 PM 48.2 °F - 17.6 °F 30% 30.28 in 10.0 mi NNE 5.8 mph - N/A   Clear